Location: Staunton
(38.1490°N, 79.0720°W)
Time: 02:36:57
(UTC-04:00)

ISS - Pass Details

Date: 21 May 2019
Orbit: 408 x 418 km, 51.6° (Epoch: 27 May)

Event Time Altitude Azimuth Distance (km) Brightness Sun altitude
Rises 22:03:11 0° 272° (W) 2,341 0.8 -16.5°
Reaches altitude 10° 22:05:48 10° 294° (WNW) 1,484 0.1 -16.9°
Maximum altitude 22:08:03 17° 337° (NNW) 1,144 -0.6 -17.2°
Drops below altitude 10° 22:10:19 10° 19° (NNE) 1,491 -0.6 -17.5°
Sets 22:12:58 0° 41° (NE) 2,358 0.1 -17.9°
